When you browse on this site, cookies collect data to enhance your experience and personalize the content and advertising you see.
Visit our Privacy Policy to learn more. By continuing to use the site, you agree to this use of cookies and data.
  • In Hungary
  • List of Countries
  • For 7 days
  • Water Temperature
  • Satellite Maps
  • Weather Map
  • News
  • Weather Widgets
  • user-avatar
    Login

    Hourly Weather Batumi

    Today, 20 January, Sunday

    Time Temperature Precipitation Wind Pressure Humidity
    00:00 +7°C° 0 mm 3 mps 769 mmHg 50%
    01:00 +5°C° 0 mm 3 mps 769 mmHg 51%
    02:00 +5°C° 0 mm 3 mps 770 mmHg 51%
    03:00 +7°C° 0 mm 3 mps 769 mmHg 44%
    04:00 +7°C° 0 mm 3 mps 769 mmHg 47%
    05:00 +5°C° 0 mm 3 mps 769 mmHg 49%
    06:00 +5°C° 0 mm 3 mps 769 mmHg 51%
    07:00 +5°C° 0 mm 3 mps 769 mmHg 52%
    08:00 +7°C° 0 mm 2 mps 769 mmHg 53%
    09:00 +7°C° 0 mm 2 mps 770 mmHg 54%
    10:00 +9°C° 0 mm 2 mps 769 mmHg 51%
    11:00 +11°C° 0 mm 1 mps 769 mmHg 48%
    12:00 +13°C° 0 mm 1 mps 768 mmHg 46%
    13:00 +12°C° 0 mm 1 mps 768 mmHg 48%
    14:00 +12°C° 0 mm 1 mps 768 mmHg 50%
    15:00 +12°C° 0 mm 1 mps 767 mmHg 52%
    16:00 +10°C° 0 mm 2 mps 768 mmHg 56%
    17:00 +9°C° 0 mm 2 mps 768 mmHg 60%
    18:00 +7°C° 0 mm 2 mps 769 mmHg 65%
    19:00 +7°C° 0 mm 2 mps 769 mmHg 65%
    20:00 +7°C° 0 mm 3 mps 769 mmHg 64%
    21:00 +7°C° 0 mm 3 mps 769 mmHg 64%
    22:00 +5°C° 0 mm 3 mps 769 mmHg 62%
    23:00 +5°C° 0 mm 3 mps 769 mmHg 60%

    Tomorrow, 21 January, Monday

    Time Temperature Precipitation Wind Pressure Humidity
    00:00 +5°C° 0 mm 4 mps 769 mmHg 57%
    01:00 +5°C° 0 mm 4 mps 769 mmHg 55%
    02:00 +5°C° 0 mm 4 mps 769 mmHg 52%
    03:00 +5°C° 0 mm 4 mps 769 mmHg 50%
    04:00 +5°C° 0 mm 4 mps 768 mmHg 48%
    05:00 +5°C° 0 mm 4 mps 768 mmHg 47%
    06:00 +5°C° 0 mm 5 mps 768 mmHg 46%
    07:00 +5°C° 0 mm 5 mps 768 mmHg 44%
    08:00 +5°C° 0 mm 5 mps 767 mmHg 43%
    09:00 +6°C° 0 mm 4 mps 767 mmHg 42%
    10:00 +7°C° 0 mm 4 mps 767 mmHg 41%
    11:00 +10°C° 0 mm 3 mps 766 mmHg 40%
    12:00 +13°C° 0 mm 2 mps 765 mmHg 39%
    13:00 +13°C° 0 mm 2 mps 765 mmHg 40%
    14:00 +13°C° 0 mm 2 mps 764 mmHg 41%
    15:00 +13°C° 0 mm 1 mps 764 mmHg 41%
    16:00 +12°C° 0 mm 2 mps 764 mmHg 47%
    17:00 +9°C° 0 mm 3 mps 765 mmHg 52%
    18:00 +7°C° 0 mm 3 mps 766 mmHg 58%
    19:00 +6°C° 0 mm 4 mps 766 mmHg 57%
    20:00 +6°C° 0 mm 4 mps 766 mmHg 56%
    21:00 +6°C° 0 mm 4 mps 766 mmHg 55%
    22:00 +5°C° 0 mm 4 mps 766 mmHg 54%
    23:00 +5°C° 0 mm 4 mps 766 mmHg 52%

    Day after tomorrow, 22 January, Tuesday

    Time Temperature Precipitation Wind Pressure Humidity
    00:00 +5°C° 0 mm 4 mps 766 mmHg 51%
    01:00 +5°C° 0 mm 4 mps 766 mmHg 51%
    02:00 +5°C° 0 mm 4 mps 766 mmHg 50%
    03:00 +5°C° 0 mm 4 mps 766 mmHg 49%
    04:00 +5°C° 0 mm 3 mps 766 mmHg 50%
    05:00 +5°C° 0 mm 3 mps 766 mmHg 51%
    06:00 +5°C° 0 mm 3 mps 766 mmHg 52%
    07:00 +6°C° 0 mm 2 mps 766 mmHg 52%
    08:00 +7°C° 0 mm 2 mps 766 mmHg 53%
    09:00 +7°C° 0 mm 2 mps 767 mmHg 54%
    10:00 +8°C° 0 mm 2 mps 766 mmHg 53%
    11:00 +10°C° 0 mm 1 mps 766 mmHg 52%
    12:00 +11°C° 0 mm 1 mps 766 mmHg 52%
    13:00 +11°C° 0 mm 1 mps 765 mmHg 54%
    14:00 +11°C° 0 mm 1 mps 765 mmHg 56%
    15:00 +10°C° 0 mm 2 mps 765 mmHg 58%
    16:00 +9°C° 0 mm 2 mps 765 mmHg 64%
    17:00 +8°C° 0 mm 1 mps 765 mmHg 70%
    18:00 +7°C° 0 mm 1 mps 766 mmHg 76%
    19:00 +7°C° 0 mm 1 mps 766 mmHg 74%
    20:00 +6°C° 0 mm 2 mps 766 mmHg 72%
    21:00 +6°C° 0 mm 2 mps 767 mmHg 69%
    22:00 +6°C° 0 mm 2 mps 767 mmHg 67%
    23:00 +5°C° 0 mm 2 mps 767 mmHg 65%

    23 January, Wednesday

    Time Temperature Precipitation Wind Pressure Humidity
    00:00 +5°C° 0 mm 2 mps 767 mmHg 62%
    01:00 +4°C° 0 mm 3 mps 767 mmHg 61%
    02:00 +4°C° 0 mm 3 mps 767 mmHg 59%
    03:00 +4°C° 0 mm 3 mps 766 mmHg 58%
    04:00 +4°C° 0 mm 3 mps 766 mmHg 57%
    05:00 +4°C° 0 mm 3 mps 766 mmHg 56%
    06:00 +4°C° 0 mm 4 mps 766 mmHg 55%
    07:00 +5°C° 0 mm 4 mps 766 mmHg 54%
    08:00 +5°C° 0 mm 4 mps 766 mmHg 52%
    09:00 +6°C° 0 mm 4 mps 767 mmHg 50%
    10:00 +9°C° 0 mm 3 mps 766 mmHg 48%
    11:00 +10°C° 0 mm 2 mps 766 mmHg 46%
    12:00 +13°C° 0 mm 2 mps 765 mmHg 45%
    13:00 +13°C° 0 mm 2 mps 765 mmHg 46%
    14:00 +13°C° 0 mm 1 mps 764 mmHg 48%
    15:00 +13°C° 0 mm 1 mps 764 mmHg 49%
    16:00 +12°C° 0 mm 2 mps 765 mmHg 54%
    17:00 +9°C° 0 mm 3 mps 765 mmHg 60%
    18:00 +8°C° 0 mm 3 mps 766 mmHg 65%
    19:00 +7°C° 0 mm 4 mps 766 mmHg 64%
    20:00 +6°C° 0 mm 4 mps 767 mmHg 63%
    21:00 +6°C° 0 mm 4 mps 767 mmHg 61%
    22:00 +6°C° 0 mm 5 mps 767 mmHg 59%
    23:00 +6°C° 0 mm 5 mps 767 mmHg 57%

    24 January, Thursday

    Time Temperature Precipitation Wind Pressure Humidity
    00:00 +6°C° 0 mm 5 mps 767 mmHg 55%
    01:00 +6°C° 0 mm 5 mps 767 mmHg 54%
    02:00 +6°C° 0 mm 5 mps 767 mmHg 52%
    03:00 +6°C° 0 mm 5 mps 767 mmHg 51%
    04:00 +6°C° 0 mm 5 mps 767 mmHg 51%
    05:00 +6°C° 0 mm 5 mps 766 mmHg 50%
    06:00 +6°C° 0 mm 5 mps 766 mmHg 50%
    07:00 +6°C° 0 mm 5 mps 766 mmHg 49%
    08:00 +7°C° 0 mm 5 mps 766 mmHg 48%
    09:00 +7°C° 0 mm 5 mps 766 mmHg 47%
    10:00 +9°C° 0 mm 5 mps 766 mmHg 46%
    11:00 +11°C° 0 mm 4 mps 765 mmHg 45%
    12:00 +13°C° 0 mm 3 mps 764 mmHg 44%
    13:00 +13°C° 0 mm 3 mps 764 mmHg 46%
    14:00 +13°C° 0 mm 3 mps 763 mmHg 47%
    15:00 +13°C° 0 mm 4 mps 762 mmHg 48%
    16:00 +12°C° 0 mm 4 mps 763 mmHg 52%
    17:00 +10°C° 0 mm 5 mps 763 mmHg 56%
    18:00 +9°C° 0 mm 5 mps 763 mmHg 59%
    19:00 +9°C° 0 mm 6 mps 763 mmHg 60%
    20:00 +9°C° 0 mm 6 mps 763 mmHg 60%
    21:00 +9°C° 0 mm 6 mps 764 mmHg 60%
    22:00 +9°C° 0 mm 6 mps 763 mmHg 59%
    23:00 +9°C° 0 mm 6 mps 763 mmHg 57%

    25 January, Friday

    Time Temperature Precipitation Wind Pressure Humidity
    00:00 +8°C° 0 mm 6 mps 763 mmHg 56%
    01:00 +8°C° 0 mm 7 mps 763 mmHg 58%
    02:00 +9°C° 0 mm 7 mps 763 mmHg 60%
    03:00 +9°C° 0 mm 7 mps 762 mmHg 61%
    04:00 +9°C° 0 mm 7 mps 762 mmHg 63%
    05:00 +9°C° 0 mm 7 mps 762 mmHg 64%
    06:00 +9°C° 0 mm 7 mps 762 mmHg 65%
    07:00 +9°C° 0 mm 7 mps 762 mmHg 64%
    08:00 +9°C° 0 mm 6 mps 762 mmHg 64%
    09:00 +10°C° 0 mm 6 mps 763 mmHg 63%
    10:00 +12°C° 0 mm 5 mps 762 mmHg 61%
    11:00 +13°C° 0 mm 5 mps 762 mmHg 58%
    12:00 +14°C° 0 mm 4 mps 761 mmHg 56%
    13:00 +15°C° 0 mm 4 mps 761 mmHg 55%
    14:00 +15°C° 0 mm 4 mps 760 mmHg 55%
    15:00 +17°C° 0 mm 3 mps 760 mmHg 54%
    16:00 +14°C° 0 mm 4 mps 760 mmHg 58%
    17:00 +13°C° 0 mm 4 mps 760 mmHg 61%
    18:00 +12°C° 0 mm 5 mps 760 mmHg 65%
    19:00 +12°C° 0 mm 5 mps 760 mmHg 64%
    20:00 +10°C° 0 mm 5 mps 760 mmHg 63%
    21:00 +10°C° 0 mm 5 mps 760 mmHg 62%
    22:00 +10°C° 0 mm 5 mps 760 mmHg 61%
    23:00 +10°C° 0 mm 5 mps 760 mmHg 61%
    Show more